Weather Roundup
Issued by NWS Chicago, IL

Home | Current Version | Previous Version | Text Only | Print | Product List | Glossary Off
Versions: 1 2 3 4 5 6 7 8 9 10 11 12 13 14 15 16 17 18 19 20 21 22 23 24 25 26 27 28 29 30 31 32 33 34 35 36 37 38 39 40 41 42 43 44 45 46 47 48 49 50

000
NZUS59 KLOT 221458
HRRLOT

CHICAGO AREA WEATHER ROUNDUP
NATIONAL WEATHER SERVICE CHICAGO/ROMEOVILLE IL
1000 AM CDT TUE JUL 22 2014

NOTE: "FAIR" INDICATES FEW OR NO CLOUDS BELOW 12,000 FEET WITH NO
SIGNIFICANT WEATHER AND/OR OBSTRUCTIONS TO VISIBILITY.

* THESE STATIONS ARE NOT UNDER NWS QUALITY CONTROL. THEY ALSO MAY NOT
  REPORT WEATHER SUCH AS PRECIPITATION OR FOG.

ILZ005-006-012>014-019>023-221600-
NORTHEAST ILLINOIS

CITY           SKY/WX    TMP DP  RH WIND       PRES   REMARKS
OHARE          MOSUNNY   81  64  56 SW12G21   30.00S HX  82
MIDWAY         MOSUNNY   82  66  58 SW16G23   30.01F HX  84
AURORA         SUNNY     81  67  62 S17       30.01S HX  83
WAUKEGAN       MOSUNNY   80  66  62 SW17G23   29.98F HX  82
DUPAGE AIRPORT SUNNY     82  68  62 S13       30.01S HX  85
WHEELING       MOSUNNY   83  66  56 SW12G21   30.01S HX  85
NORTHERLY IS     N/A     80  63  55 S9          N/A  HX  81
$$

WIZ051-052-058>065-066-070>072-221600-
SOUTHEAST WISCONSIN

CITY           SKY/WX    TMP DP  RH WIND       PRES   REMARKS
MILWAUKEE      PTSUNNY   81  67  62 SW16      29.96F HX  83
KENOSHA*       PTSUNNY   79  68  69 SW14G21   29.98F HX  81
RACINE*        PTSUNNY   81  68  64 SW10      29.98F HX  84
WAUKESHA       MOSUNNY   77  66  69 S12       29.98S
$$

INZ001>003-010>013-019-020-221600-
NORTHWEST INDIANA

CITY           SKY/WX    TMP DP  RH WIND       PRES   REMARKS
GARY*          NOT AVBL
MICHIGAN CITY* NOT AVBL
RENSSELAER*    NOT AVBL
VALPARAISO     SUNNY     79  66  64 S14       30.05F HX  81
$$

LMZ740>746-221600-
SOUTHERN LAKE MICHIGAN

STATION/POSITION TIME  SKY/WX   TEMP WIND        PRES    VSBY
                                AIR  DIR/SP/G
                 (UTC)          (F)  (DEG/KT/KT) (MB)    (MI)
HARRISON CRIB    1400            74  190/ 16/ 19   N/A
BURNHAM HARBOR   1400            78  190/ 12/ 15   N/A
CALUMET HARBOR   1400            78  190/ 11/ 17 1014.9F
BURNS HARBOR     1400            75  190/ 14/ 22 1017.9
MICHIGAN CITY    1400            75  170/ 11/ 14   N/A
$$

ABBREVIATIONS USED IN REMARKS
   TC - TEMPERATURE IN CELSIUS
  WCI - WIND CHILL INDEX
   HX - HEAT INDEX
  VSB - VISIBILITY
$$


USA.gov is the U.S. government's official web portal to all federal, state and local government web resources and services.